Location: Borz?cin
(51.1714°N, 19.6030°E)
Time: 21:59:22
(UTC+00:00)

Cosmos 2360 - Pass Details

Date: 19 May 2025
Orbit: 846 x 855 km, 70.8° (Epoch: 15 June)

Event Time Altitude Azimuth Distance (km) Brightness Sun altitude
Rises 18:59:45 0° 329° (NNW) 3,434 9.0 -4.3°
Reaches altitude 10° 19:02:13 10° 330° (NNW) 2,494 8.1 -4.6°
Maximum altitude 19:07:58 85° 59° (ENE) 862 4.3 -5.3°
Drops below altitude 10° 19:13:40 10° 149° (SSE) 2,472 6.0 -6.0°
Enters shadow 19:14:36 - 150° (SSE) 2,824 6.3 -6.1°
